DW1735 Weather Reports


time (UTC)temp
C
wind
direction
speed
KPH
gust
KPH
rain 1hr
cm
rain 24hr
cm
rain mn
cm
humidity
%
barometer
mb
20260507120548 10 204 3.2 12.9 0.00 0.00 0.00 86 1020.1
20260507120059 10 197 4.8 12.9 0.00 0.00 0.00 86 1020.2
20260507115550 10 229 1.6 8.0 0.00 0.00 0.00 87 1020.2
20260507115049 10 185 4.8 8.0 0.00 0.00 0.00 87 1020.2
20260507114556 10 170 1.6 6.4 0.00 0.00 0.00 87 1020.2
20260507114049 10 168 3.2 6.4 0.00 0.00 0.00 88 1020.3
20260507113548 10 216 3.2 6.4 0.00 0.00 0.00 88 1020.3
20260507113057 10 157 1.6 4.8 0.00 0.00 0.00 88 1020.4
20260507112549 10 0 0.0 3.2 0.00 0.00 0.00 88 1020.4
20260507112049 10 162 0.0 3.2 0.00 0.00 0.00 88 1020.4
20260507111551 10 162 0.0 3.2 0.00 0.00 0.00 88 1020.5
20260507111049 10 162 1.6 4.8 0.00 0.00 0.00 88 1020.5
20260507110548 10 162 1.6 4.8 0.00 0.00 0.00 88 1020.5
20260507110101 10 155 1.6 4.8 0.00 0.00 0.00 88 1020.5
20260507105550 10 160 1.6 4.8 0.00 0.00 0.00 88 1020.4
20260507105051 10 122 1.6 3.2 0.00 0.00 0.00 88 1020.5
20260507104558 10 122 1.6 4.8 0.00 0.00 0.00 89 1020.5
20260507104050 10 122 1.6 4.8 0.00 0.00 0.00 89 1020.4
20260507103551 10 118 1.6 4.8 0.00 0.00 0.00 88 1020.5
20260507103101 10 117 1.6 4.8 0.00 0.00 0.00 88 1020.5
20260507102549 10 118 1.6 4.8 0.00 0.00 0.00 88 1020.5
20260507102049 10 123 3.2 4.8 0.00 0.00 0.00 88 1020.6
20260507101609 10 194 1.6 4.8 0.00 0.00 0.00 88 1020.6
20260507101049 10 205 1.6 6.4 0.00 0.00 0.00 88 1020.6
20260507100551 10 210 1.6 6.4 0.00 0.00 0.00 89 1020.7
20260507100108 10 220 3.2 6.4 0.00 0.00 0.00 89 1020.6
20260507095549 10 219 3.2 6.4 0.00 0.00 0.00 89 1020.6
20260507095049 10 205 1.6 6.4 0.00 0.00 0.00 89 1020.6
20260507094600 10 245 1.6 6.4 0.00 0.00 0.00 89 1020.5
20260507094050 10 217 1.6 3.2 0.00 0.00 0.00 89 1020.5
20260507093548 10 214 0.0 4.8 0.00 0.00 0.00 89 1020.6
20260507093053 10 0 0.0 6.4 0.00 0.00 0.00 90 1020.6
20260507092549 10 210 0.0 6.4 0.00 0.00 0.00 89 1020.5
20260507092050 10 210 3.2 6.4 0.00 0.00 0.00 89 1020.5
20260507091603 10 218 3.2 6.4 0.00 0.00 0.00 89 1020.5
20260507091049 10 226 3.2 9.7 0.00 0.00 0.00 89 1020.5
20260507090549 10 224 3.2 9.7 0.00 0.00 0.00 89 1020.6
20260507090110 10 220 4.8 9.7 0.00 0.00 0.00 89 1020.5
20260507085551 10 216 4.8 14.5 0.00 0.00 0.00 89 1020.6
20260507085049 10 228 4.8 14.5 0.00 0.00 0.00 89 1020.6
20260507084554 10 210 8.0 14.5 0.00 0.00 0.00 89 1020.6
20260507084048 10 185 4.8 12.9 0.00 0.00 0.00 88 1020.5
20260507083548 10 226 6.4 12.9 0.00 0.00 0.00 89 1020.5
20260507083059 10 202 6.4 9.7 0.00 0.00 0.00 88 1020.5
20260507082550 10 241 4.8 9.7 0.00 0.00 0.00 88 1020.6
20260507082048 10 219 4.8 8.0 0.00 0.00 0.00 88 1020.6
20260507081557 10 213 4.8 16.1 0.00 0.00 0.00 88 1020.6
20260507081048 10 227 9.7 16.1 0.00 0.00 0.00 88 1020.6
20260507080549 10 180 6.4 14.5 0.00 0.00 0.00 88 1020.6
20260507080054 10 213 8.0 14.5 0.00 0.00 0.00 89 1020.6
20260507075549 10 205 6.4 16.1 0.00 0.00 0.00 89 1020.5
20260507075049 10 228 8.0 16.1 0.00 0.00 0.00 89 1020.5
20260507074549 10 214 8.0 19.3 0.00 0.00 0.00 89 1020.6
20260507074048 10 232 6.4 19.3 0.00 0.00 0.00 89 1020.6
20260507073549 10 229 9.7 16.1 0.00 0.00 0.00 89 1020.6
20260507073100 10 248 6.4 14.5 0.00 0.00 0.00 90 1020.6
20260507072549 10 228 4.8 14.5 0.00 0.00 0.00 90 1020.7
20260507072049 10 230 8.0 14.5 0.00 0.00 0.00 90 1020.6
20260507071559 10 212 6.4 16.1 0.00 0.00 0.00 90 1020.7
20260507071048 10 204 9.7 16.1 0.00 0.00 0.00 90 1020.5
20260507070549 10 235 11.3 17.7 0.00 0.00 0.00 90 1020.5
20260507070135 10 206 12.9 17.7 0.00 0.00 0.00 90 1020.5
20260507065553 10 194 6.4 14.5 0.00 0.00 0.00 90 1020.5
20260507065049 10 204 8.0 14.5 0.00 0.00 0.00 91 1020.6
20260507064554 10 204 8.0 17.7 0.00 0.00 0.00 90 1020.6
20260507064048 10 229 9.7 17.7 0.00 0.00 0.00 90 1020.6
20260507063549 10 197 11.3 17.7 0.00 0.00 0.00 90 1020.6
20260507063101 10 208 9.7 17.7 0.00 0.00 0.00 91 1020.6
20260507062548 10 193 9.7 17.7 0.00 0.00 0.00 91 1020.6
20260507062049 10 180 11.3 17.7 0.00 0.00 0.00 91 1020.6
20260507061552 10 197 9.7 17.7 0.00 0.00 0.00 90 1020.7
20260507061048 10 239 8.0 14.5 0.00 0.00 0.00 90 1020.6
20260507060548 10 205 6.4 14.5 0.00 0.00 0.00 90 1020.6
20260507060052 10 175 8.0 14.5 0.00 0.00 0.00 90 1020.6
20260507055549 10 214 8.0 16.1 0.00 0.00 0.00 90 1020.6
20260507055049 10 180 6.4 16.1 0.00 0.00 0.00 90 1020.6
20260507054557 10 200 6.4 14.5 0.00 0.00 0.00 90 1020.6
20260507054048 11 216 4.8 16.1 0.00 0.00 0.00 90 1020.6
20260507053548 11 204 8.0 20.9 0.00 0.00 0.00 90 1020.5
20260507053055 11 226 9.7 20.9 0.00 0.00 0.00 90 1020.5
20260507052550 11 218 9.7 17.7 0.00 0.00 0.00 89 1020.6
20260507052048 11 211 11.3 17.7 0.00 0.00 0.00 89 1020.6
20260507051553 11 229 11.3 17.7 0.00 0.00 0.00 89 1020.6
20260507051049 11 216 8.0 12.9 0.00 0.00 0.00 88 1020.5
20260507050550 11 215 6.4 11.3 0.00 0.00 0.00 88 1020.6
20260507050053 11 175 6.4 11.3 0.00 0.00 0.00 87 1020.6
20260507045549 11 218 6.4 12.9 0.00 0.00 0.00 87 1020.6
20260507045049 11 208 4.8 14.5 0.00 0.00 0.00 87 1020.6
20260507044556 11 245 4.8 14.5 0.00 0.00 0.00 87 1020.7
20260507044048 11 211 6.4 14.5 0.00 0.00 0.00 86 1020.7
20260507043548 11 243 4.8 11.3 0.00 0.00 0.00 86 1020.6
20260507043053 11 185 3.2 14.5 0.00 0.00 0.00 85 1020.6
20260507042550 11 247 4.8 14.5 0.00 0.00 0.00 85 1020.6
20260507042049 11 229 8.0 14.5 0.00 0.00 0.00 85 1020.5
20260507041553 11 249 3.2 9.7 0.00 0.00 0.00 85 1020.6
20260507041050 11 223 4.8 9.7 0.00 0.00 0.00 85 1020.5
20260507040549 11 226 3.2 9.7 0.00 0.00 0.00 85 1020.5
20260507040055 11 221 3.2 6.4 0.00 0.00 0.00 85 1020.5
20260507035549 11 235 3.2 9.7 0.00 0.00 0.00 85 1020.5
20260507035049 11 242 3.2 9.7 0.00 0.00 0.00 85 1020.4
20260507034552 11 227 4.8 16.1 0.00 0.00 0.00 85 1020.4
20260507034049 11 189 4.8 16.1 0.00 0.00 0.00 85 1020.3
20260507033549 12 238 6.4 16.1 0.00 0.00 0.00 84 1020.3
20260507033050 12 254 6.4 16.1 0.00 0.00 0.00 84 1020.3
20260507032548 12 246 8.0 17.7 0.00 0.00 0.00 84 1020.2
20260507032048 12 258 8.0 17.7 0.00 0.00 0.00 83 1020.2
20260507031551 12 276 8.0 17.7 0.00 0.00 0.00 83 1020.1
20260507031051 12 260 6.4 19.3 0.00 0.00 0.00 83 1020.2
20260507030549 12 239 9.7 19.3 0.00 0.00 0.00 83 1020.0
20260507030057 12 239 8.0 22.5 0.00 0.00 0.00 83 1020.0
20260507025549 12 223 6.4 22.5 0.00 0.00 0.00 82 1020.0
20260507025048 12 274 12.9 22.5 0.00 0.00 0.00 82 1019.9
20260507024612 12 205 9.7 17.7 0.00 0.00 0.00 82 1019.9
20260507024053 12 231 6.4 20.9 0.00 0.00 0.00 82 1019.9
20260507023552 12 240 9.7 20.9 0.00 0.00 0.00 81 1019.9
20260507023054 12 247 14.5 20.9 0.00 0.00 0.00 81 1019.9
20260507022549 12 268 8.0 16.1 0.00 0.00 0.00 81 1019.9
20260507022049 12 228 6.4 19.3 0.00 0.00 0.00 81 1019.8
20260507021612 12 250 9.7 19.3 0.00 0.00 0.00 80 1019.8
20260507021049 12 229 6.4 17.7 0.00 0.00 0.00 80 1019.7
20260507020549 12 211 8.0 14.5 0.00 0.00 0.00 80 1019.7
20260507015548 12 214 8.0 17.7 0.00 0.00 0.00 81 1019.9
20260507015052 12 214 8.0 19.3 0.00 0.00 0.00 80 1019.8
20260507014611 12 214 8.0 19.3 0.00 0.00 0.00 80 1019.8
20260507014047 13 202 11.3 19.3 0.00 0.00 0.00 80 1019.9
20260507013548 13 235 11.3 19.3 0.00 0.00 0.00 80 1019.8
20260507013055 13 234 8.0 14.5 0.00 0.00 0.00 80 1019.8
20260507012550 13 244 8.0 17.7 0.00 0.00 0.00 80 1019.9
20260507012049 13 215 8.0 17.7 0.00 0.00 0.00 80 1019.9
20260507011551 13 262 8.0 19.3 0.00 0.00 0.00 80 1019.8
20260507011048 13 231 9.7 25.7 0.00 0.00 0.00 80 1019.9
20260507010552 13 250 11.3 25.7 0.00 0.00 0.00 80 1019.8
20260507010105 13 259 11.3 25.7 0.00 0.00 0.00 80 1019.9
20260507005549 13 218 9.7 19.3 0.00 0.00 0.00 80 1019.9
20260507005050 13 251 9.7 20.9 0.00 0.00 0.00 80 1019.9
20260507004554 13 251 8.0 20.9 0.00 0.00 0.00 80 1020.0
20260507004049 13 222 8.0 19.3 0.00 0.00 0.00 80 1020.0
20260507003549 13 272 9.7 20.9 0.00 0.00 0.00 80 1020.0
20260507003052 13 249 8.0 20.9 0.00 0.00 0.00 80 1019.9
20260507002549 13 244 14.5 20.9 0.00 0.00 0.00 80 1020.0
20260507002050 13 247 9.7 20.9 0.00 0.00 0.00 80 1019.9
20260507001553 13 203 11.3 20.9 0.00 0.00 0.00 80 1020.0
20260507001048 13 241 12.9 20.9 0.00 0.00 0.00 79 1020.0
20260507000548 13 247 8.0 17.7 0.00 0.00 0.00 80 1019.9
20260507000053 13 258 9.7 20.9 0.00 0.00 0.00 80 1020.0
20260506235549 13 241 11.3 25.7 0.00 0.00 0.00 80 1020.0
20260506235049 13 236 11.3 25.7 0.00 0.00 0.00 80 1020.0
20260506234553 13 243 9.7 25.7 0.00 0.00 0.00 79 1019.9
20260506234049 13 220 16.1 25.7 0.00 0.00 0.00 79 1020.0
20260506233549 13 260 9.7 24.1 0.00 0.00 0.00 79 1019.9
20260506233052 13 237 11.3 24.1 0.00 0.00 0.00 79 1020.0
20260506232548 13 270 14.5 24.1 0.00 0.00 0.00 79 1020.0
20260506232049 13 210 14.5 25.7 0.00 0.00 0.00 79 1020.0
20260506231551 13 243 16.1 25.7 0.00 0.00 0.00 78 1020.1
20260506231052 13 221 14.5 25.7 0.00 0.00 0.00 79 1020.1
20260506230552 13 258 16.1 25.7 0.00 0.00 0.00 78 1020.1
20260506230100 13 249 12.9 24.1 0.00 0.00 0.00 78 1020.1
20260506225549 13 249 12.9 24.1 0.00 0.00 0.00 78 1020.0
20260506225049 13 246 12.9 24.1 0.00 0.00 0.00 78 1020.1
20260506224556 13 235 11.3 24.1 0.00 0.00 0.00 78 1020.1
20260506224049 13 207 12.9 24.1 0.00 0.00 0.00 78 1020.1
20260506223548 13 225 12.9 22.5 0.00 0.00 0.00 77 1020.1
20260506223054 13 213 12.9 22.5 0.00 0.00 0.00 78 1020.2
20260506222548 13 243 11.3 20.9 0.00 0.00 0.00 78 1020.2
20260506222048 13 241 12.9 20.9 0.00 0.00 0.00 78 1020.2
20260506221553 13 236 9.7 19.3 0.00 0.00 0.00 79 1020.3
20260506221049 13 180 11.3 20.9 0.00 0.00 0.00 78 1020.3
20260506220549 13 234 8.0 20.9 0.00 0.00 0.00 79 1020.4
20260506220053 13 199 11.3 24.1 0.00 0.00 0.00 77 1020.2
20260506215552 13 287 9.7 24.1 0.00 0.00 0.00 78 1020.3
20260506215048 13 258 12.9 20.9 0.00 0.00 0.00 78 1020.2
20260506214551 13 243 9.7 17.7 0.00 0.00 0.00 79 1020.4
20260506214049 13 262 6.4 16.1 0.00 0.00 0.00 78 1020.4
20260506213548 13 218 8.0 16.1 0.00 0.00 0.00 79 1020.4
20260506213056 13 237 6.4 17.7 0.00 0.00 0.00 79 1020.4
20260506212551 13 251 8.0 17.7 0.00 0.00 0.00 78 1020.4
20260506212051 13 249 11.3 22.5 0.00 0.00 0.00 79 1020.4
20260506211555 13 251 12.9 27.4 0.00 0.00 0.00 79 1020.5
20260506211049 12 280 12.9 27.4 0.00 0.00 0.00 79 1020.4
20260506210549 13 199 14.5 22.5 0.00 0.00 0.00 79 1020.4
20260506210057 13 239 11.3 19.3 0.00 0.00 0.00 79 1020.4
20260506205549 13 233 12.9 19.3 0.00 0.00 0.00 79 1020.3
20260506205049 13 240 8.0 20.9 0.00 0.00 0.00 79 1020.3
20260506204559 13 257 8.0 20.9 0.00 0.00 0.00 79 1020.3
20260506204048 12 244 12.9 19.3 0.00 0.00 0.00 79 1020.3
20260506203548 13 245 9.7 20.9 0.00 0.00 0.00 79 1020.2
20260506203056 12 260 11.3 20.9 0.00 0.00 0.00 79 1020.3
20260506202549 13 222 8.0 16.1 0.00 0.00 0.00 80 1020.2
20260506202049 13 235 9.7 16.1 0.00 0.00 0.00 80 1020.2
20260506201630 13 209 6.4 14.5 0.00 0.00 0.00 80 1020.2
20260506201048 13 217 8.0 14.5 0.00 0.00 0.00 80 1020.2
20260506200548 13 211 8.0 14.5 0.00 0.00 0.00 80 1020.1
20260506200052 12 238 4.8 9.7 0.00 0.00 0.00 80 1020.1
20260506195549 12 243 6.4 14.5 0.00 0.00 0.00 80 1020.1
20260506195052 12 231 6.4 14.5 0.00 0.00 0.00 80 1020.0
20260506194600 12 246 6.4 19.3 0.00 0.00 0.00 81 1020.1
20260506194048 12 216 6.4 19.3 0.00 0.00 0.00 80 1020.0
20260506193550 12 221 8.0 17.7 0.00 0.00 0.00 81 1020.0
20260506192548 12 185 11.3 17.7 0.00 0.00 0.00 81 1020.0
20260506192048 12 190 8.0 17.7 0.00 0.00 0.00 81 1019.9
20260506191601 12 214 9.7 17.7 0.00 0.00 0.00 81 1019.9
20260506191049 12 195 12.9 17.7 0.00 0.00 0.00 82 1019.9
20260506190550 12 212 6.4 12.9 0.00 0.00 0.00 83 1019.9
20260506190058 12 193 4.8 12.9 0.00 0.00 0.00 84 1019.9
20260506185548 12 180 4.8 12.9 0.00 0.00 0.00 85 1020.0
20260506185049 12 198 8.0 12.9 0.00 0.00 0.00 85 1019.9
20260506184603 12 207 6.4 12.9 0.00 0.00 0.00 85 1020.0
20260506184049 12 197 6.4 14.5 0.00 0.00 0.00 85 1020.0
20260506183549 12 244 4.8 14.5 0.00 0.00 0.00 86 1020.0
20260506183054 12 214 6.4 14.5 0.00 0.00 0.00 86 1019.9
20260506182551 12 251 6.4 17.7 0.00 0.00 0.00 86 1020.0
20260506182049 12 252 8.0 17.7 0.00 0.00 0.00 86 1020.1
20260506181601 12 230 4.8 12.9 0.00 0.00 0.00 87 1020.0
20260506181049 12 250 8.0 14.5 0.00 0.00 0.00 87 1019.8
20260506180549 12 151 4.8 17.7 0.00 0.00 0.00 89 1019.7
20260506180058 11 189 8.0 17.7 0.00 0.00 0.00 89 1019.6
20260506175550 11 242 11.3 17.7 0.00 0.00 0.00 89 1019.7
20260506175051 11 214 9.7 16.1 0.00 0.00 0.00 89 1019.8
20260506174555 11 224 8.0 16.1 0.00 0.00 0.00 89 1019.7
20260506174049 11 199 6.4 12.9 0.00 0.00 0.00 90 1019.7
20260506173549 11 250 4.8 14.5 0.00 0.00 0.00 90 1019.8
20260506173113 11 237 8.0 14.5 0.00 0.00 0.00 90 1019.8
20260506172549 11 216 8.0 14.5 0.00 0.00 0.00 90 1019.8
20260506172050 11 211 4.8 16.1 0.00 0.00 0.00 90 1019.8
20260506171556 11 256 9.7 16.1 0.00 0.00 0.00 90 1019.8
20260506171049 11 206 9.7 17.7 0.00 0.00 0.00 90 1019.8
20260506170550 11 214 9.7 17.7 0.00 0.00 0.00 91 1019.8
20260506170056 11 237 9.7 17.7 0.00 0.00 0.00 91 1019.8
20260506165549 11 226 11.3 16.1 0.00 0.00 0.00 91 1019.7
20260506165049 11 239 8.0 17.7 0.00 0.00 0.00 92 1019.7
20260506164549 11 229 9.7 19.3 0.00 0.00 0.00 92 1019.6
20260506164049 11 226 11.3 19.3 0.00 0.00 0.00 92 1019.6
20260506163550 11 206 9.7 20.9 0.00 0.00 0.00 93 1019.5
20260506163113 11 216 9.7 20.9 0.00 0.00 0.00 93 1019.4
20260506162549 11 198 9.7 17.7 0.00 0.00 0.00 93 1019.3
20260506162049 11 175 11.3 19.3 0.00 0.00 0.00 93 1019.2
20260506161559 11 222 11.3 19.3 0.00 0.00 0.00 93 1019.2
20260506161049 10 214 11.3 16.1 0.00 0.00 0.00 93 1019.1
20260506160549 10 172 9.7 16.1 0.00 0.00 0.00 93 1019.2
20260506160056 11 185 4.8 14.5 0.00 0.00 0.00 93 1019.2
20260506155548 10 190 8.0 14.5 0.00 0.00 0.00 93 1019.3
20260506155049 10 219 8.0 14.5 0.00 0.00 0.00 93 1019.3
20260506154600 10 234 8.0 14.5 0.00 0.00 0.00 93 1019.5
20260506154049 10 224 6.4 12.9 0.00 0.00 0.00 93 1019.5
20260506153549 10 252 6.4 14.5 0.00 0.00 0.00 93 1019.6
20260506153053 10 235 6.4 14.5 0.00 0.00 0.00 93 1019.4
20260506152549 10 206 6.4 12.9 0.00 0.00 0.00 93 1019.4
20260506152052 10 258 6.4 12.9 0.00 0.00 0.00 93 1019.4
20260506151555 10 203 6.4 12.9 0.00 0.00 0.00 93 1019.4
20260506151049 10 212 8.0 12.9 0.00 0.00 0.00 93 1019.2
20260506150549 10 217 6.4 16.1 0.00 0.00 0.00 93 1019.1
20260506150053 10 205 4.8 16.1 0.00 0.00 0.00 93 1019.3
20260506145551 10 208 6.4 14.5 0.00 0.00 0.00 93 1019.4
20260506145048 10 220 6.4 14.5 0.00 0.00 0.00 93 1019.3
20260506144554 10 237 8.0 12.9 0.00 0.00 0.00 92 1019.4
20260506144049 10 244 6.4 12.9 0.00 0.00 0.00 93 1019.4
20260506143550 10 260 6.4 14.5 0.00 0.00 0.00 92 1019.3
20260506143052 10 231 8.0 14.5 0.00 0.00 0.00 92 1019.2
20260506142549 10 250 4.8 16.1 0.00 0.00 0.00 92 1019.2
20260506142049 10 243 4.8 16.1 0.00 0.00 0.00 92 1019.0
20260506141556 10 235 9.7 14.5 0.00 0.00 0.00 92 1018.9
20260506141050 11 201 6.4 11.3 0.00 0.00 0.00 92 1018.9
20260506140549 11 202 6.4 11.3 0.00 0.00 0.00 92 1019.1
20260506140100 11 239 6.4 14.5 0.00 0.00 0.00 92 1019.1
20260506135549 11 200 6.4 14.5 0.00 0.00 0.00 91 1019.1
20260506135049 11 231 6.4 14.5 0.00 0.00 0.00 91 1019.1
20260506134550 11 209 6.4 19.3 0.00 0.00 0.00 91 1018.9
20260506134049 11 225 6.4 19.3 0.00 0.00 0.00 91 1018.9
20260506133549 11 244 6.4 14.5 0.00 0.00 0.00 91 1019.1
20260506133102 11 235 8.0 14.5 0.00 0.00 0.00 91 1018.9
20260506132549 11 194 6.4 14.5 0.00 0.00 0.00 91 1018.8
20260506132051 11 245 4.8 14.5 0.00 0.00 0.00 91 1018.9
20260506131557 11 222 6.4 14.5 0.00 0.00 0.00 91 1018.8
20260506131049 11 260 8.0 14.5 0.00 0.00 0.00 91 1018.5
20260506130549 11 160 6.4 12.9 0.00 0.00 0.00 91 1018.4
20260506130053 11 212 4.8 9.7 0.00 0.00 0.00 91 1018.6
20260506125548 11 228 4.8 12.9 0.00 0.00 0.00 91 1018.5
20260506125049 11 224 4.8 12.9 0.00 0.00 0.00 91 1018.4
20260506124554 11 226 6.4 12.9 0.00 0.00 0.00 91 1018.5
20260506124048 11 238 6.4 12.9 0.00 0.00 0.00 91 1018.4
20260506123549 11 226 6.4 11.3 0.00 0.00 0.00 91 1018.3
20260506123052 11 226 6.4 16.1 0.00 0.00 0.00 91 1018.3
20260506122549 11 235 8.0 16.1 0.00 0.00 0.00 91 1018.4
20260506122049 11 240 6.4 14.5 0.00 0.00 0.00 91 1018.3
20260506121549 11 215 4.8 14.5 0.00 0.00 0.00 91 1018.3
20260506121049 11 245 6.4 14.5 0.00 0.00 0.00 91 1018.2